Andrews, NC

4:35 AM EST on December 07, 2019 (GMT -0500)
Andrews

Weather History for KRHP - July, 2019

Change the Weather History Date:

Sunday, July 21, 2019

  Actual Average (KMMI) Record (KMMI)
Temperature  
Mean Temperature 76 °F -  
Max Temperature 84 °F 90 °F 96 °F (2016)
Min Temperature 67 °F 65 °F 64 °F (2018)
Cooling Degree Days 10    
Growing Degree Days 26 (Base 50)    
Moisture  
Dew Point 71 °F    
Average Humidity 89    
Maximum Humidity 100    
Minimum Humidity 65    
Precipitation  
Precipitation 0.04 in - - ()
Sea Level Pressure  
Sea Level Pressure 30.09 in    
Wind  
Wind Speed 1 mph (SW)    
Max Wind Speed 10 mph    
Max Gust Speed -    
Visibility 9 miles    
Events Fog , Rain    
Averages and records for this station are not official NWS values.
T = Trace of Precipitation, MM = Missing Value Source: NWS Daily Summary

Daily Weather History Graph

Daily Weather History Graph

Search for Another Location

Airport or City:

Astronomy

Jul. 21, 2019 Rise Set
Actual Time 6:36 AM EDT 8:47 PM EDT
Civil Twilight 6:07 AM EDT 9:15 PM EDT
Nautical Twilight 5:32 AM EDT 9:50 PM EDT
Astronomical Twilight 4:54 AM EDT 10:28 PM EDT
Moon 11:50 PM EDT (7/21) 10:47 AM EDT (7/21)
Length of Visible Light 15h 08m
Length of Day
14h 10m
Waning Gibbous, 80% of the Moon is Illuminated
Jul 21
Waning Gibbous
Jul 24
Last Quarter
Jul 31
New
Aug 7
First Quarter
Aug 15
Full

Hourly Weather History & Observations

Time (EDT) Temp. Heat Index Dew Point Humidity Pressure Visibility Wind Dir Wind Speed Gust Speed Precip Events Conditions
12:00 AM 72.3 °F - 72.3 °F 100% 30.11 in 10.0 mi Calm Calm - N/A   Mostly Cloudy
12:20 AM 71.6 °F - 71.6 °F 100% 30.11 in 10.0 mi Calm Calm - N/A Rain Light Rain
12:40 AM 71.6 °F - 71.6 °F 100% 30.10 in 10.0 mi Calm Calm - N/A   Mostly Cloudy
1:00 AM 71.6 °F - 71.6 °F 100% 30.09 in 10.0 mi Calm Calm - N/A   Mostly Cloudy
1:20 AM 71.1 °F - 71.1 °F 100% 30.08 in 10.0 mi Calm Calm - N/A   Scattered Clouds
1:40 AM 70.7 °F - 70.7 °F 100% 30.08 in 10.0 mi Calm Calm - N/A   Mostly Cloudy
2:00 AM 70.9 °F - 70.9 °F 100% 30.08 in 10.0 mi Calm Calm - N/A   Overcast
2:20 AM 70.0 °F - 70.0 °F 100% 30.07 in 7.0 mi Calm Calm - N/A   Scattered Clouds
2:40 AM 69.4 °F - 69.4 °F 100% 30.07 in 7.0 mi East 3.5 mph - N/A   Scattered Clouds
3:00 AM 69.6 °F - 69.6 °F 100% 30.07 in 7.0 mi Calm Calm - N/A   Mostly Cloudy
3:20 AM 68.9 °F - 68.9 °F 100% 30.07 in 7.0 mi Calm Calm - N/A   Scattered Clouds
3:40 AM 69.1 °F - 69.1 °F 100% 30.08 in 7.0 mi Calm Calm - N/A   Mostly Cloudy
4:00 AM 68.5 °F - 68.5 °F 100% 30.08 in 10.0 mi Calm Calm - N/A   Mostly Cloudy
4:20 AM 68.5 °F - 68.5 °F 100% 30.08 in 10.0 mi Calm Calm - N/A   Mostly Cloudy
4:40 AM 68.2 °F - 68.2 °F 100% 30.09 in 10.0 mi Calm Calm - N/A   Mostly Cloudy
5:00 AM 67.6 °F - 67.6 °F 100% 30.09 in 10.0 mi Calm Calm - N/A   Mostly Cloudy
5:20 AM 67.8 °F - 67.8 °F 100% 30.10 in 10.0 mi Calm Calm - N/A   Mostly Cloudy
5:40 AM 67.5 °F - 67.5 °F 100% 30.09 in 10.0 mi Calm Calm - N/A   Overcast
6:00 AM 68.0 °F - 68.0 °F 100% 30.09 in 4.0 mi Calm Calm - N/A   Overcast
6:20 AM 68.2 °F - 68.2 °F 100% 30.10 in 2.0 mi Calm Calm - N/A   Overcast
6:40 AM 68.0 °F - 68.0 °F 100% 30.11 in 1.0 mi Calm Calm - N/A   Overcast
7:00 AM 68.2 °F - 68.2 °F 100% 30.11 in 0.5 mi Calm Calm - N/A Fog Fog
7:20 AM 68.0 °F - 68.0 °F 100% 30.12 in 0.8 mi Calm Calm - N/A   Overcast
7:40 AM 68.0 °F - 68.0 °F 100% 30.13 in 10.0 mi Calm Calm - N/A   Overcast
8:00 AM 68.2 °F - 68.2 °F 100% 30.13 in 10.0 mi NE 3.5 mph - N/A   Overcast
8:20 AM 68.9 °F - 68.9 °F 100% 30.13 in 10.0 mi Calm Calm - N/A   Overcast
8:40 AM 69.4 °F - 69.4 °F 100% 30.14 in 10.0 mi Calm Calm - N/A   Overcast
9:00 AM 69.8 °F - 69.8 °F 100% 30.13 in 10.0 mi Calm Calm - N/A   Overcast
9:20 AM 70.5 °F - 70.5 °F 100% 30.14 in 10.0 mi Calm Calm - N/A   Overcast
9:40 AM 72.1 °F - 70.7 °F 95% 30.14 in 10.0 mi Calm Calm - N/A   Overcast
10:00 AM 73.4 °F - 70.7 °F 91% 30.13 in 10.0 mi Calm Calm - N/A   Overcast
10:20 AM 75.4 °F - 70.2 °F 84% 30.14 in 10.0 mi Calm Calm - N/A   Mostly Cloudy
10:40 AM 77.0 °F - 71.1 °F 82% 30.14 in 10.0 mi Calm Calm - N/A   Mostly Cloudy
11:00 AM 77.4 °F - 70.7 °F 80% 30.13 in 10.0 mi Calm Calm - N/A   Overcast
11:20 AM 77.2 °F - 71.2 °F 82% 30.13 in 10.0 mi WSW 3.5 mph - N/A   Mostly Cloudy
11:40 AM 79.7 °F - 72.1 °F 78% 30.12 in 10.0 mi WSW 4.6 mph - N/A   Mostly Cloudy
12:00 PM 81.0 °F 84.9 °F 71.2 °F 72% 30.12 in 10.0 mi Calm Calm - N/A   Scattered Clouds
12:20 PM 81.1 °F 85.4 °F 71.8 °F 73% 30.12 in 10.0 mi West 3.5 mph - N/A   Mostly Cloudy
12:40 PM 81.5 °F 86.5 °F 72.9 °F 75% 30.11 in 10.0 mi WNW 3.5 mph - N/A   Scattered Clouds
1:00 PM 82.9 °F 87.7 °F 71.6 °F 68% 30.11 in 10.0 mi West 3.5 mph - N/A   Clear
1:20 PM 84.2 °F 89.9 °F 72.0 °F 67% 30.11 in 10.0 mi SW 4.6 mph - N/A   Clear
1:40 PM 84.0 °F 89.6 °F 72.1 °F 67% 30.11 in 10.0 mi WSW 10.4 mph - N/A   Clear
2:00 PM 83.1 °F 88.6 °F 72.5 °F 70% 30.10 in 10.0 mi WSW 6.9 mph - N/A   Clear
2:20 PM 83.5 °F 89.7 °F 73.0 °F 71% 30.10 in 10.0 mi SSW 5.8 mph - N/A   Scattered Clouds
2:40 PM 83.7 °F 88.6 °F 71.4 °F 66% 30.09 in 10.0 mi SW 5.8 mph - N/A   Scattered Clouds
3:00 PM 83.8 °F 88.9 °F 71.6 °F 66% 30.08 in 10.0 mi WSW 4.6 mph - N/A   Scattered Clouds
3:20 PM 84.7 °F 90.4 °F 71.8 °F 65% 30.07 in 10.0 mi West 4.6 mph - N/A   Scattered Clouds
3:40 PM 84.2 °F 89.6 °F 71.6 °F 66% 30.07 in 10.0 mi WSW 3.5 mph - N/A   Mostly Cloudy
4:00 PM 82.9 °F 87.5 °F 70.9 °F 67% 30.06 in 10.0 mi SW 4.6 mph - N/A   Mostly Cloudy
4:20 PM 81.0 °F 85.2 °F 71.8 °F 74% 30.06 in 10.0 mi SSW 3.5 mph - N/A   Overcast
4:40 PM 79.5 °F - 73.6 °F 82% 30.06 in 5.0 mi SSW 8.1 mph - 0.04 in Rain Light Rain
5:00 PM 82.4 °F 87.9 °F 72.9 °F 73% 30.06 in 10.0 mi SSE 3.5 mph - N/A   Scattered Clouds
5:20 PM 84.2 °F 90.6 °F 73.2 °F 69% 30.05 in 10.0 mi SSE 3.5 mph - N/A   Clear
5:40 PM 84.6 °F 90.0 °F 71.4 °F 65% 30.05 in 10.0 mi SSW 4.6 mph - N/A   Scattered Clouds
6:00 PM 84.0 °F 89.6 °F 72.1 °F 67% 30.05 in 10.0 mi SSW 3.5 mph - N/A   Scattered Clouds
6:20 PM 81.5 °F 86.5 °F 72.9 °F 75% 30.04 in 10.0 mi Calm Calm - N/A   Scattered Clouds
6:40 PM 80.4 °F 85.5 °F 74.5 °F 82% 30.04 in 10.0 mi SSE 3.5 mph - N/A   Mostly Cloudy
7:00 PM 80.6 °F 85.4 °F 73.6 °F 79% 30.03 in 10.0 mi Calm Calm - N/A   Overcast
7:20 PM 81.7 °F 87.1 °F 73.4 °F 76% 30.04 in 10.0 mi Calm Calm - N/A   Mostly Cloudy
7:40 PM 80.4 °F 85.1 °F 73.6 °F 80% 30.05 in 10.0 mi Calm Calm - N/A   Mostly Cloudy
8:00 PM 80.1 °F 84.5 °F 73.8 °F 81% 30.05 in 10.0 mi SSE 3.5 mph - N/A Rain Light Rain
8:20 PM 76.8 °F - 75.4 °F 95% 30.04 in 10.0 mi Calm Calm - N/A   Mostly Cloudy
8:40 PM 75.4 °F - 75.4 °F 100% 30.05 in 10.0 mi Calm Calm - N/A   Mostly Cloudy
9:00 PM 74.5 °F - 74.5 °F 100% 30.06 in 10.0 mi Calm Calm - N/A   Overcast
9:20 PM 74.3 °F - 74.3 °F 100% 30.06 in 10.0 mi Calm Calm - N/A   Overcast
9:40 PM 73.9 °F - 73.9 °F 100% 30.07 in 10.0 mi Calm Calm - N/A   Overcast
10:00 PM 72.9 °F - 72.9 °F 100% 30.08 in 10.0 mi Calm Calm - N/A   Mostly Cloudy
10:20 PM 72.5 °F - 72.5 °F 100% 30.08 in 10.0 mi Calm Calm - N/A   Mostly Cloudy
10:40 PM 71.8 °F - 71.8 °F 100% 30.08 in 10.0 mi Calm Calm - N/A   Scattered Clouds
11:00 PM 71.6 °F - 71.6 °F 100% 30.08 in 10.0 mi Calm Calm - N/A   Scattered Clouds
11:20 PM 71.1 °F - 71.1 °F 100% 30.08 in 10.0 mi Calm Calm - N/A   Scattered Clouds
11:40 PM 71.1 °F - 71.1 °F 100% 30.08 in 7.0 mi Calm Calm - N/A   Mostly Cloudy